| time (UTC) | temp F | wind direction | speed MPH | gust MPH | rain 1hr in | rain 24hr in | rain mn in | humidity % | barometer mb |
| 20260506232247 | 65 | 217 | 6.0 | 17.0 | 0.00 | 0.00 | 0.00 | 63 | 1014.8 |
| 20260506231234 | 66 | 280 | 9.0 | 16.0 | 0.00 | 0.00 | 0.00 | 63 | 1014.8 |
| 20260506230726 | 65 | 210 | 9.0 | 16.0 | 0.00 | 0.00 | 0.00 | 61 | 1014.8 |
| 20260506230219 | 65 | 228 | 11.0 | 16.0 | 0.00 | 0.00 | 0.00 | 61 | 1015.1 |
| 20260506225712 | 65 | 224 | 8.0 | 16.0 | 0.00 | 0.00 | 0.00 | 66 | 1014.8 |
| 20260506225204 | 65 | 207 | 13.0 | 16.0 | 0.00 | 0.00 | 0.00 | 65 | 1015.1 |
| 20260506224657 | 65 | 248 | 11.0 | 16.0 | 0.00 | 0.00 | 0.00 | 64 | 1015.1 |
| 20260506224149 | 66 | 246 | 13.0 | 16.0 | 0.00 | 0.00 | 0.00 | 62 | 1015.1 |
| 20260506223642 | 65 | 248 | 8.0 | 16.0 | 0.00 | 0.00 | 0.00 | 62 | 1015.1 |
| 20260506223134 | 66 | 243 | 8.0 | 16.0 | 0.00 | 0.00 | 0.00 | 62 | 1015.1 |
| 20260506222627 | 65 | 221 | 11.0 | 16.0 | 0.00 | 0.00 | 0.00 | 61 | 1015.5 |
| 20260506222120 | 65 | 226 | 7.0 | 16.0 | 0.00 | 0.00 | 0.00 | 65 | 1015.5 |
| 20260506221613 | 66 | 229 | 14.0 | 16.0 | 0.00 | 0.00 | 0.00 | 63 | 1015.5 |
| 20260506221105 | 65 | 267 | 6.0 | 16.0 | 0.00 | 0.00 | 0.00 | 64 | 1015.5 |
| 20260506220558 | 66 | 226 | 11.0 | 16.0 | 0.00 | 0.00 | 0.00 | 61 | 1015.5 |
| 20260506215544 | 65 | 236 | 10.0 | 17.0 | 0.00 | 0.00 | 0.00 | 59 | 1015.8 |
| 20260506215037 | 65 | 238 | 7.0 | 17.0 | 0.00 | 0.00 | 0.00 | 62 | 1015.8 |
| 20260506214528 | 65 | 34 | 3.0 | 15.0 | 0.00 | 0.00 | 0.00 | 63 | 1015.8 |
| 20260506214021 | 67 | 249 | 11.0 | 15.0 | 0.00 | 0.00 | 0.00 | 63 | 1015.8 |
| 20260506213514 | 65 | 202 | 6.0 | 15.0 | 0.00 | 0.00 | 0.00 | 64 | 1015.8 |
| 20260506213007 | 65 | 237 | 9.0 | 15.0 | 0.00 | 0.00 | 0.00 | 66 | 1016.2 |
| 20260506212501 | 66 | 244 | 9.0 | 16.0 | 0.00 | 0.00 | 0.00 | 63 | 1016.2 |
| 20260506211952 | 66 | 238 | 4.0 | 15.0 | 0.00 | 0.00 | 0.00 | 64 | 1016.2 |
| 20260506211445 | 66 | 229 | 8.0 | 15.0 | 0.00 | 0.00 | 0.00 | 63 | 1016.2 |
| 20260506210938 | 65 | 296 | 7.0 | 15.0 | 0.00 | 0.00 | 0.00 | 63 | 1016.2 |
| 20260506210431 | 66 | 244 | 13.0 | 17.0 | 0.00 | 0.00 | 0.00 | 61 | 1016.2 |
| 20260506205923 | 66 | 240 | 10.0 | 17.0 | 0.00 | 0.00 | 0.00 | 62 | 1016.2 |
| 20260506205416 | 66 | 241 | 6.0 | 15.0 | 0.00 | 0.00 | 0.00 | 61 | 1016.2 |
| 20260506204909 | 66 | 239 | 9.0 | 13.0 | 0.00 | 0.00 | 0.00 | 61 | 1016.2 |
| 20260506203347 | 67 | 263 | 9.0 | 11.0 | 0.00 | 0.00 | 0.00 | 59 | 1016.5 |
| 20260506202840 | 66 | 265 | 7.0 | 13.0 | 0.00 | 0.00 | 0.00 | 62 | 1016.5 |
| 20260506202332 | 67 | 235 | 11.0 | 13.0 | 0.00 | 0.00 | 0.00 | 61 | 1016.5 |
| 20260506201824 | 66 | 242 | 8.0 | 15.0 | 0.00 | 0.00 | 0.00 | 62 | 1016.5 |
| 20260506201318 | 65 | 235 | 8.0 | 15.0 | 0.00 | 0.00 | 0.00 | 63 | 1016.8 |
| 20260506200810 | 66 | 252 | 9.0 | 14.0 | 0.00 | 0.00 | 0.00 | 63 | 1016.8 |
| 20260506200303 | 66 | 245 | 9.0 | 14.0 | 0.00 | 0.00 | 0.00 | 63 | 1016.8 |
| 20260506195756 | 65 | 210 | 9.0 | 15.0 | 0.00 | 0.00 | 0.00 | 64 | 1016.8 |
| 20260506195249 | 65 | 216 | 9.0 | 15.0 | 0.00 | 0.00 | 0.00 | 62 | 1016.8 |
| 20260506194742 | 65 | 277 | 8.0 | 14.0 | 0.00 | 0.00 | 0.00 | 62 | 1016.8 |
| 20260506194234 | 66 | 220 | 11.0 | 13.0 | 0.00 | 0.00 | 0.00 | 61 | 1016.8 |
| 20260506193727 | 65 | 300 | 6.0 | 14.0 | 0.00 | 0.00 | 0.00 | 64 | 1016.8 |
| 20260506193220 | 66 | 239 | 9.0 | 14.0 | 0.00 | 0.00 | 0.00 | 61 | 1016.8 |
| 20260506192712 | 65 | 220 | 6.0 | 14.0 | 0.00 | 0.00 | 0.00 | 65 | 1016.8 |
| 20260506191657 | 67 | 240 | 6.0 | 10.0 | 0.00 | 0.00 | 0.00 | 62 | 1017.2 |
| 20260506191150 | 66 | 234 | 7.0 | 13.0 | 0.00 | 0.00 | 0.00 | 62 | 1016.8 |
| 20260506190643 | 65 | 239 | 9.0 | 13.0 | 0.00 | 0.00 | 0.00 | 63 | 1017.2 |
| 20260506190136 | 65 | 253 | 8.0 | 16.0 | 0.00 | 0.00 | 0.00 | 64 | 1017.2 |
| 20260506185629 | 66 | 238 | 11.0 | 16.0 | 0.00 | 0.00 | 0.00 | 63 | 1017.2 |
| 20260506184614 | 65 | 222 | 7.0 | 11.0 | 0.00 | 0.00 | 0.00 | 64 | 1017.2 |
| 20260506184107 | 65 | 202 | 8.0 | 13.0 | 0.00 | 0.00 | 0.00 | 64 | 1017.2 |
| 20260506183600 | 64 | 202 | 8.0 | 13.0 | 0.00 | 0.00 | 0.00 | 65 | 1017.2 |
| 20260506183052 | 65 | 265 | 9.0 | 11.0 | 0.00 | 0.00 | 0.00 | 65 | 1017.2 |
| 20260506182545 | 65 | 257 | 8.0 | 15.0 | 0.00 | 0.00 | 0.00 | 66 | 1017.2 |
| 20260506181023 | 65 | 256 | 6.0 | 10.0 | 0.00 | 0.00 | 0.00 | 64 | 1017.5 |
| 20260506180515 | 65 | 243 | 8.0 | 13.0 | 0.00 | 0.00 | 0.00 | 65 | 1017.2 |
| 20260506180008 | 66 | 184 | 9.0 | 11.0 | 0.00 | 0.00 | 0.00 | 64 | 1017.2 |
| 20260506175501 | 65 | 202 | 5.0 | 10.0 | 0.00 | 0.00 | 0.00 | 67 | 1017.5 |
| 20260506174954 | 65 | 184 | 6.0 | 11.0 | 0.00 | 0.00 | 0.00 | 66 | 1017.5 |
| 20260506174446 | 65 | 204 | 6.0 | 11.0 | 0.00 | 0.00 | 0.00 | 67 | 1017.5 |
| 20260506173939 | 65 | 213 | 6.0 | 11.0 | 0.00 | 0.00 | 0.00 | 67 | 1017.2 |
| 20260506173431 | 66 | 255 | 6.0 | 10.0 | 0.00 | 0.00 | 0.00 | 65 | 1017.5 |
| 20260506172924 | 66 | 235 | 7.0 | 11.0 | 0.00 | 0.00 | 0.00 | 65 | 1017.2 |
| 20260506172417 | 67 | 167 | 5.0 | 11.0 | 0.00 | 0.00 | 0.00 | 65 | 1017.5 |
| 20260506171909 | 67 | 222 | 1.0 | 6.0 | 0.00 | 0.00 | 0.00 | 63 | 1017.2 |
| 20260506171402 | 67 | 151 | 2.0 | 7.0 | 0.00 | 0.00 | 0.00 | 60 | 1017.2 |
| 20260506170855 | 67 | 243 | 1.0 | 7.0 | 0.00 | 0.00 | 0.00 | 59 | 1017.2 |
| 20260506170348 | 68 | 1 | 2.0 | 6.0 | 0.00 | 0.00 | 0.00 | 57 | 1017.2 |
| 20260506165841 | 67 | 121 | 1.0 | 6.0 | 0.00 | 0.00 | 0.00 | 60 | 1017.2 |
| 20260506165334 | 67 | 95 | 4.0 | 6.0 | 0.00 | 0.00 | 0.00 | 61 | 1017.2 |
| 20260506164826 | 65 | 128 | 2.0 | 4.0 | 0.00 | 0.00 | 0.00 | 62 | 1017.2 |
| 20260506164319 | 65 | 150 | 2.0 | 4.0 | 0.00 | 0.00 | 0.00 | 63 | 1017.2 |
| 20260506163811 | 65 | 199 | 1.0 | 4.0 | 0.00 | 0.00 | 0.00 | 64 | 1017.2 |
| 20260506162250 | 64 | 94 | 2.0 | 8.0 | 0.00 | 0.00 | 0.00 | 66 | 1017.2 |
| 20260506161743 | 65 | 189 | 6.0 | 8.0 | 0.00 | 0.00 | 0.00 | 65 | 1017.2 |
| 20260506161235 | 64 | 19 | 2.0 | 4.0 | 0.00 | 0.00 | 0.00 | 69 | 1017.2 |
| 20260506160728 | 63 | 99 | 2.0 | 6.0 | 0.00 | 0.00 | 0.00 | 70 | 1017.2 |
| 20260506160221 | 63 | 161 | 4.0 | 6.0 | 0.00 | 0.00 | 0.00 | 70 | 1017.5 |
| 20260506155714 | 62 | 87 | 2.0 | 6.0 | 0.00 | 0.00 | 0.00 | 71 | 1017.2 |
| 20260506155206 | 63 | 174 | 3.0 | 4.0 | 0.00 | 0.00 | 0.00 | 70 | 1017.2 |
| 20260506153643 | 61 | 109 | 2.0 | 7.0 | 0.00 | 0.00 | 0.00 | 74 | 1017.2 |
| 20260506153137 | 61 | 144 | 3.0 | 7.0 | 0.00 | 0.00 | 0.00 | 75 | 1017.5 |
| 20260506152630 | 61 | 189 | 3.0 | 6.0 | 0.00 | 0.00 | 0.00 | 75 | 1017.5 |
| 20260506152122 | 62 | 49 | 1.0 | 6.0 | 0.00 | 0.00 | 0.00 | 74 | 1017.2 |
| 20260506151616 | 62 | 94 | 2.0 | 4.0 | 0.00 | 0.00 | 0.00 | 75 | 1017.2 |
| 20260506151107 | 62 | 77 | 3.0 | 4.0 | 0.00 | 0.00 | 0.00 | 74 | 1017.2 |
| 20260506150601 | 61 | 125 | 2.0 | 6.0 | 0.00 | 0.00 | 0.00 | 76 | 1017.2 |
| 20260506150054 | 61 | 357 | 1.0 | 6.0 | 0.00 | 0.00 | 0.00 | 77 | 1017.2 |
| 20260506145039 | 60 | 43 | 3.0 | 7.0 | 0.00 | 0.00 | 0.00 | 79 | 1017.2 |
| 20260506144532 | 60 | 53 | 3.0 | 7.0 | 0.00 | 0.00 | 0.00 | 78 | 1017.5 |
| 20260506144024 | 59 | 71 | 2.0 | 7.0 | 0.00 | 0.00 | 0.00 | 79 | 1017.5 |
| 20260506143516 | 59 | 36 | 4.0 | 7.0 | 0.00 | 0.00 | 0.00 | 79 | 1017.2 |
| 20260506143009 | 59 | 51 | 6.0 | 7.0 | 0.00 | 0.00 | 0.00 | 79 | 1017.2 |
| 20260506142502 | 59 | 3 | 4.0 | 6.0 | 0.00 | 0.00 | 0.00 | 79 | 1017.2 |
| 20260506141955 | 59 | 40 | 3.0 | 4.0 | 0.00 | 0.00 | 0.00 | 78 | 1017.2 |
| 20260506141448 | 58 | 4 | 2.0 | 3.0 | 0.00 | 0.00 | 0.00 | 78 | 1017.2 |
| 20260506140941 | 58 | 22 | 1.0 | 3.0 | 0.00 | 0.00 | 0.00 | 79 | 1017.2 |
| 20260506140433 | 57 | 352 | 0.0 | 3.0 | 0.00 | 0.00 | 0.00 | 80 | 1016.8 |
| 20260506135926 | 56 | 5 | 2.0 | 2.0 | 0.00 | 0.00 | 0.00 | 80 | 1017.2 |
| 20260506135419 | 56 | 338 | 1.0 | 2.0 | 0.00 | 0.00 | 0.00 | 81 | 1016.8 |
| 20260506134911 | 56 | 343 | 0.0 | 2.0 | 0.00 | 0.00 | 0.00 | 81 | 1016.8 |
| 20260506134404 | 55 | 339 | 0.0 | 1.0 | 0.00 | 0.00 | 0.00 | 83 | 1016.8 |
| 20260506133856 | 55 | 338 | 0.0 | 1.0 | 0.00 | 0.00 | 0.00 | 84 | 1016.8 |
| 20260506133349 | 55 | 329 | 0.0 | 1.0 | 0.00 | 0.00 | 0.00 | 84 | 1016.8 |
| 20260506132842 | 54 | 329 | 0.0 | 1.0 | 0.00 | 0.00 | 0.00 | 85 | 1016.8 |
| 20260506132336 | 54 | 330 | 1.0 | 2.0 | 0.00 | 0.00 | 0.00 | 85 | 1016.8 |
| 20260506131827 | 54 | 357 | 1.0 | 3.0 | 0.00 | 0.00 | 0.00 | 86 | 1016.8 |
| 20260506130813 | 53 | 330 | 0.0 | 1.0 | 0.00 | 0.00 | 0.00 | 86 | 1016.8 |
| 20260506130306 | 53 | 338 | 1.0 | 1.0 | 0.00 | 0.00 | 0.00 | 86 | 1016.5 |
| 20260506125251 | 53 | 326 | 1.0 | 1.0 | 0.00 | 0.00 | 0.00 | 85 | 1016.5 |
| 20260506124744 | 53 | 325 | 0.0 | 1.0 | 0.00 | 0.00 | 0.00 | 85 | 1016.5 |
| 20260506124237 | 54 | 324 | 0.0 | 2.0 | 0.00 | 0.00 | 0.00 | 85 | 1016.5 |
| 20260506123730 | 53 | 345 | 1.0 | 2.0 | 0.00 | 0.00 | 0.00 | 86 | 1016.5 |
| 20260506123223 | 53 | 345 | 1.0 | 2.0 | 0.00 | 0.00 | 0.00 | 86 | 1016.2 |
| 20260506122715 | 53 | 333 | 0.0 | 1.0 | 0.00 | 0.00 | 0.00 | 86 | 1016.5 |
| 20260506122208 | 53 | 328 | 0.0 | 1.0 | 0.00 | 0.00 | 0.00 | 86 | 1016.2 |
| 20260506121701 | 53 | 329 | 0.0 | 1.0 | 0.00 | 0.00 | 0.00 | 86 | 1016.2 |
| 20260506121153 | 53 | 328 | 0.0 | 1.0 | 0.00 | 0.00 | 0.00 | 86 | 1016.2 |
| 20260506120646 | 53 | 328 | 0.0 | 2.0 | 0.00 | 0.00 | 0.00 | 86 | 1016.2 |
| 20260506120139 | 53 | 326 | 1.0 | 2.0 | 0.00 | 0.00 | 0.00 | 86 | 1016.2 |
| 20260506114617 | 53 | 327 | 0.0 | 1.0 | 0.00 | 0.00 | 0.00 | 86 | 1016.2 |
| 20260506114110 | 53 | 328 | 0.0 | 2.0 | 0.00 | 0.00 | 0.00 | 86 | 1016.2 |
| 20260506113603 | 54 | 326 | 1.0 | 2.0 | 0.00 | 0.00 | 0.00 | 85 | 1015.8 |
| 20260506113056 | 54 | 324 | 1.0 | 2.0 | 0.00 | 0.00 | 0.00 | 86 | 1016.2 |
| 20260506112548 | 54 | 328 | 0.0 | 2.0 | 0.00 | 0.00 | 0.00 | 86 | 1016.2 |
| 20260506112041 | 54 | 337 | 1.0 | 2.0 | 0.00 | 0.00 | 0.00 | 86 | 1016.2 |
| 20260506111534 | 54 | 334 | 1.0 | 1.0 | 0.00 | 0.00 | 0.00 | 86 | 1016.2 |
| 20260506111026 | 54 | 332 | 0.0 | 1.0 | 0.00 | 0.00 | 0.00 | 86 | 1016.2 |
| 20260506110519 | 54 | 332 | 0.0 | 1.0 | 0.00 | 0.00 | 0.00 | 86 | 1016.2 |
| 20260506110012 | 53 | 328 | 0.0 | 1.0 | 0.00 | 0.00 | 0.00 | 87 | 1015.8 |
| 20260506104957 | 53 | 324 | 0.0 | 2.0 | 0.00 | 0.00 | 0.00 | 87 | 1016.2 |
| 20260506104450 | 53 | 322 | 0.0 | 2.0 | 0.00 | 0.00 | 0.00 | 87 | 1016.2 |
| 20260506103435 | 53 | 323 | 0.0 | 2.0 | 0.00 | 0.00 | 0.00 | 87 | 1016.2 |
| 20260506102928 | 53 | 324 | 1.0 | 2.0 | 0.00 | 0.00 | 0.00 | 87 | 1015.8 |
| 20260506101407 | 54 | 318 | 1.0 | 1.0 | 0.00 | 0.00 | 0.00 | 86 | 1016.2 |
| 20260506100352 | 54 | 325 | 0.0 | 1.0 | 0.00 | 0.00 | 0.00 | 86 | 1016.2 |
| 20260506095845 | 54 | 325 | 0.0 | 1.0 | 0.00 | 0.00 | 0.00 | 86 | 1016.2 |
| 20260506095338 | 54 | 325 | 1.0 | 3.0 | 0.00 | 0.00 | 0.00 | 86 | 1016.2 |
| 20260506094830 | 54 | 314 | 0.0 | 3.0 | 0.00 | 0.00 | 0.00 | 86 | 1016.2 |
| 20260506094323 | 54 | 333 | 1.0 | 2.0 | 0.00 | 0.00 | 0.00 | 86 | 1016.2 |
| 20260506093815 | 54 | 322 | 1.0 | 2.0 | 0.00 | 0.00 | 0.00 | 86 | 1016.2 |
| 20260506092801 | 54 | 326 | 1.0 | 2.0 | 0.00 | 0.00 | 0.00 | 86 | 1016.2 |
| 20260506092254 | 54 | 325 | 1.0 | 2.0 | 0.00 | 0.00 | 0.00 | 85 | 1016.2 |
| 20260506091239 | 54 | 328 | 0.0 | 2.0 | 0.00 | 0.00 | 0.00 | 85 | 1016.2 |
| 20260506090732 | 54 | 331 | 1.0 | 2.0 | 0.00 | 0.00 | 0.00 | 85 | 1016.2 |
| 20260506090225 | 54 | 318 | 0.0 | 1.0 | 0.00 | 0.00 | 0.00 | 85 | 1016.2 |
| 20260506085718 | 54 | 315 | 0.0 | 2.0 | 0.00 | 0.00 | 0.00 | 85 | 1016.2 |
| 20260506085211 | 54 | 328 | 0.0 | 2.0 | 0.00 | 0.00 | 0.00 | 85 | 1016.5 |
| 20260506084703 | 54 | 316 | 0.0 | 2.0 | 0.00 | 0.00 | 0.00 | 85 | 1016.5 |
| 20260506084155 | 54 | 313 | 0.0 | 2.0 | 0.00 | 0.00 | 0.00 | 85 | 1016.5 |
| 20260506083648 | 54 | 324 | 1.0 | 2.0 | 0.00 | 0.00 | 0.00 | 85 | 1016.5 |
| 20260506083141 | 54 | 334 | 1.0 | 2.0 | 0.00 | 0.00 | 0.00 | 85 | 1016.2 |
| 20260506082635 | 54 | 322 | 0.0 | 1.0 | 0.00 | 0.00 | 0.00 | 84 | 1016.5 |
| 20260506082127 | 54 | 314 | 0.0 | 1.0 | 0.00 | 0.00 | 0.00 | 84 | 1016.5 |
| 20260506081620 | 54 | 322 | 0.0 | 2.0 | 0.00 | 0.00 | 0.00 | 84 | 1016.5 |
| 20260506081113 | 54 | 310 | 0.0 | 2.0 | 0.00 | 0.00 | 0.00 | 84 | 1016.5 |
| 20260506080605 | 54 | 338 | 2.0 | 3.0 | 0.00 | 0.00 | 0.00 | 84 | 1016.5 |
| 20260506073521 | 55 | 325 | 2.0 | 3.0 | 0.00 | 0.00 | 0.00 | 82 | 1016.5 |
| 20260506073014 | 55 | 310 | 1.0 | 3.0 | 0.00 | 0.00 | 0.00 | 82 | 1016.5 |
| 20260506072507 | 55 | 325 | 1.0 | 2.0 | 0.00 | 0.00 | 0.00 | 82 | 1016.5 |
| 20260506072000 | 55 | 324 | 1.0 | 2.0 | 0.00 | 0.00 | 0.00 | 82 | 1016.8 |
| 20260506071452 | 55 | 321 | 1.0 | 2.0 | 0.00 | 0.00 | 0.00 | 82 | 1016.5 |
| 20260506070945 | 55 | 305 | 0.0 | 2.0 | 0.00 | 0.00 | 0.00 | 81 | 1016.5 |
| 20260506070437 | 55 | 331 | 1.0 | 2.0 | 0.00 | 0.00 | 0.00 | 81 | 1016.5 |
| 20260506062339 | 56 | 308 | 0.0 | 2.0 | 0.00 | 0.00 | 0.00 | 80 | 1016.2 |
| 20260506061832 | 56 | 337 | 2.0 | 2.0 | 0.00 | 0.00 | 0.00 | 80 | 1016.2 |
| 20260506061325 | 56 | 313 | 1.0 | 2.0 | 0.00 | 0.00 | 0.00 | 80 | 1016.2 |
| 20260506060310 | 56 | 312 | 1.0 | 2.0 | 0.00 | 0.00 | 0.00 | 80 | 1016.2 |
| 20260506050142 | 57 | 313 | 0.0 | 2.0 | 0.00 | 0.00 | 0.00 | 79 | 1015.5 |
| 20260506045128 | 57 | 321 | 0.0 | 2.0 | 0.00 | 0.00 | 0.00 | 79 | 1015.1 |
| 20260506044620 | 57 | 317 | 1.0 | 2.0 | 0.00 | 0.00 | 0.00 | 79 | 1015.1 |
| 20260506043606 | 58 | 322 | 0.0 | 2.0 | 0.00 | 0.00 | 0.00 | 78 | 1015.1 |
| 20260506043059 | 58 | 318 | 1.0 | 2.0 | 0.00 | 0.00 | 0.00 | 77 | 1015.1 |
| 20260506042552 | 58 | 306 | 1.0 | 1.0 | 0.00 | 0.00 | 0.00 | 77 | 1014.8 |
| 20260506042045 | 58 | 278 | 0.0 | 1.0 | 0.00 | 0.00 | 0.00 | 76 | 1014.8 |
| 20260506041537 | 58 | 278 | 0.0 | 1.0 | 0.00 | 0.00 | 0.00 | 76 | 1014.8 |
| 20260506041029 | 58 | 278 | 0.0 | 1.0 | 0.00 | 0.00 | 0.00 | 76 | 1014.8 |
| 20260506040522 | 59 | 277 | 0.0 | 1.0 | 0.00 | 0.00 | 0.00 | 75 | 1014.8 |
| 20260506040015 | 59 | 277 | 1.0 | 1.0 | 0.00 | 0.00 | 0.00 | 75 | 1014.8 |
| 20260506035508 | 59 | 269 | 1.0 | 1.0 | 0.00 | 0.00 | 0.00 | 75 | 1014.8 |
| 20260506035001 | 59 | 270 | 1.0 | 1.0 | 0.00 | 0.00 | 0.00 | 75 | 1014.5 |
| 20260506033946 | 59 | 263 | 0.0 | 2.0 | 0.00 | 0.00 | 0.00 | 74 | 1014.5 |
| 20260506033439 | 59 | 262 | 0.0 | 2.0 | 0.00 | 0.00 | 0.00 | 74 | 1014.5 |
| 20260506032931 | 59 | 265 | 1.0 | 3.0 | 0.00 | 0.00 | 0.00 | 74 | 1014.5 |
| 20260506032424 | 59 | 258 | 1.0 | 3.0 | 0.00 | 0.00 | 0.00 | 73 | 1014.5 |
| 20260506031917 | 59 | 265 | 1.0 | 4.0 | 0.00 | 0.00 | 0.00 | 73 | 1014.1 |
| 20260506031410 | 59 | 241 | 2.0 | 4.0 | 0.00 | 0.00 | 0.00 | 73 | 1014.1 |
| 20260506030903 | 59 | 262 | 2.0 | 6.0 | 0.00 | 0.00 | 0.00 | 74 | 1014.1 |
| 20260506030355 | 59 | 222 | 4.0 | 6.0 | 0.00 | 0.00 | 0.00 | 73 | 1014.1 |
| 20260506025340 | 60 | 247 | 4.0 | 6.0 | 0.00 | 0.00 | 0.00 | 73 | 1013.8 |
| 20260506024833 | 60 | 248 | 2.0 | 6.0 | 0.00 | 0.00 | 0.00 | 73 | 1013.8 |
| 20260506024327 | 60 | 218 | 1.0 | 4.0 | 0.00 | 0.00 | 0.00 | 73 | 1013.8 |
| 20260506023820 | 60 | 273 | 2.0 | 4.0 | 0.00 | 0.00 | 0.00 | 73 | 1013.8 |
| 20260506023311 | 60 | 217 | 3.0 | 7.0 | 0.00 | 0.00 | 0.00 | 73 | 1013.8 |
| 20260506022804 | 60 | 241 | 4.0 | 10.0 | 0.00 | 0.00 | 0.00 | 72 | 1013.4 |
| 20260506021749 | 60 | 224 | 4.0 | 9.0 | 0.00 | 0.00 | 0.00 | 73 | 1013.4 |
| 20260506020735 | 60 | 215 | 6.0 | 8.0 | 0.00 | 0.00 | 0.00 | 73 | 1013.4 |
| 20260506020227 | 60 | 229 | 4.0 | 10.0 | 0.00 | 0.00 | 0.00 | 72 | 1013.4 |
| 20260506015720 | 60 | 234 | 5.0 | 10.0 | 0.00 | 0.00 | 0.00 | 72 | 1013.4 |
| 20260506014705 | 61 | 231 | 4.0 | 9.0 | 0.00 | 0.00 | 0.00 | 69 | 1013.4 |
| 20260506013651 | 61 | 261 | 3.0 | 11.0 | 0.00 | 0.00 | 0.00 | 68 | 1013.4 |
| 20260506013144 | 61 | 220 | 7.0 | 11.0 | 0.00 | 0.00 | 0.00 | 67 | 1013.1 |
| 20260506012637 | 61 | 268 | 8.0 | 9.0 | 0.00 | 0.00 | 0.00 | 68 | 1013.1 |
| 20260506012130 | 61 | 238 | 4.0 | 8.0 | 0.00 | 0.00 | 0.00 | 68 | 1013.1 |
| 20260506011622 | 61 | 252 | 3.0 | 8.0 | 0.00 | 0.00 | 0.00 | 68 | 1013.1 |
| 20260506010608 | 60 | 250 | 5.0 | 10.0 | 0.00 | 0.00 | 0.00 | 70 | 1013.4 |
| 20260506010100 | 60 | 274 | 3.0 | 10.0 | 0.00 | 0.00 | 0.00 | 70 | 1013.1 |
| 20260506005553 | 60 | 258 | 6.0 | 11.0 | 0.00 | 0.00 | 0.00 | 70 | 1013.1 |
| 20260506005045 | 60 | 160 | 7.0 | 11.0 | 0.00 | 0.00 | 0.00 | 70 | 1013.1 |
| 20260506004538 | 60 | 247 | 6.0 | 13.0 | 0.00 | 0.00 | 0.00 | 69 | 1013.1 |
| 20260506004031 | 60 | 283 | 4.0 | 14.0 | 0.00 | 0.00 | 0.00 | 69 | 1013.1 |
| 20260506003524 | 60 | 223 | 9.0 | 14.0 | 0.00 | 0.00 | 0.00 | 68 | 1013.1 |
| 20260506003016 | 60 | 223 | 9.0 | 11.0 | 0.00 | 0.00 | 0.00 | 67 | 1013.1 |
| 20260506002002 | 60 | 217 | 8.0 | 13.0 | 0.00 | 0.00 | 0.00 | 67 | 1013.1 |
| 20260506001455 | 60 | 232 | 5.0 | 17.0 | 0.00 | 0.00 | 0.00 | 67 | 1013.1 |
| 20260506000948 | 61 | 231 | 8.0 | 17.0 | 0.00 | 0.00 | 0.00 | 66 | 1013.1 |
| 20260506000440 | 61 | 248 | 9.0 | 13.0 | 0.00 | 0.00 | 0.00 | 65 | 1013.1 |
| 20260505235933 | 61 | 233 | 8.0 | 14.0 | 0.00 | 0.00 | 0.00 | 66 | 1013.1 |
| 20260505235426 | 61 | 241 | 6.0 | 15.0 | 0.00 | 0.00 | 0.00 | 65 | 1013.1 |
| 20260505234918 | 61 | 201 | 9.0 | 15.0 | 0.00 | 0.00 | 0.00 | 65 | 1013.1 |
| 20260505234410 | 61 | 250 | 8.0 | 15.0 | 0.00 | 0.00 | 0.00 | 66 | 1013.1 |
| 20260505233903 | 62 | 231 | 11.0 | 15.0 | 0.00 | 0.00 | 0.00 | 64 | 1013.1 |
| 20260505233356 | 62 | 37 | 6.0 | 17.0 | 0.00 | 0.00 | 0.00 | 65 | 1013.1 |